Location: Unspecified
(58.7730°N, 5.8460°E)
Time: 08:44:10
(UTC+02:00)

Okean 3 - Visible Passes

Search period start: 29 September 2016 00:00
Search period end: 09 October 2016 00:00
Orbit: 577 x 604 km, 82.5° (Epoch: 27 September)

Date Brightness Start Highest point End Pass type
(mag) Time Alt. Az. Time Alt. Az. Time Alt. Az.
29 Sep 5.0 03:16:28 35° NE 03:16:28 35° NE 03:19:04 10° NNE visible
29 Sep 4.9 04:53:03 25° NW 04:53:03 25° NW 04:56:05 10° N visible
30 Sep 6.4 01:48:28 11° NE 01:48:28 11° NE 01:48:53 10° NE visible
30 Sep 4.9 03:25:02 35° NNE 03:25:02 35° NNE 03:27:33 10° NNE visible
30 Sep 5.2 05:01:37 20° NW 05:01:37 20° NW 05:04:20 10° N visible
01 Oct 6.3 01:57:02 13° NE 01:57:02 13° NE 01:57:52 10° NE visible
01 Oct 5.0 03:33:36 33° N 03:33:36 33° N 03:36:01 10° NNE visible
01 Oct 5.4 05:10:10 16° NW 05:10:10 16° NW 05:12:29 10° NNW visible
02 Oct 6.2 02:05:35 15° NE 02:05:35 15° NE 02:06:39 10° NNE visible
02 Oct 5.1 03:42:09 30° N 03:42:09 30° N 03:44:26 10° N visible
02 Oct 5.7 05:18:43 13° NW 05:18:43 13° NW 05:20:29 10° NNW visible
03 Oct 6.1 02:14:07 17° NE 02:14:07 17° NE 02:15:18 10° NNE visible
03 Oct 5.2 03:50:41 26° NNW 03:50:41 26° NNW 03:52:49 10° N visible
03 Oct 5.8 05:27:15 10° NW 05:27:15 10° NW 05:27:51 10° NW visible
04 Oct 6.1 02:22:38 18° NNE 02:22:38 18° NNE 02:23:54 10° NNE visible
04 Oct 5.4 03:59:13 22° NNW 03:59:13 22° NNW 04:01:10 10° N visible
05 Oct 6.0 02:31:09 19° NNE 02:31:09 19° NNE 02:32:25 10° NNE visible
05 Oct 5.6 04:07:43 19° NNW 04:07:43 19° NNW 04:09:27 10° N visible
06 Oct 6.0 02:39:40 19° NNE 02:39:40 19° NNE 02:40:55 10° NNE visible
06 Oct 5.7 04:16:14 16° NNW 04:16:14 16° NNW 04:17:42 10° N visible
07 Oct 6.0 02:48:10 18° N 02:48:10 18° N 02:49:22 10° NNE visible
07 Oct 5.9 04:24:44 14° NNW 04:24:44 14° NNW 04:25:51 10° NNW visible
08 Oct 6.1 02:56:39 18° N 02:56:39 18° N 02:57:47 10° N visible
08 Oct 6.0 04:33:13 12° NNW 04:33:13 12° NNW 04:33:51 10° NNW visible
